Location: Brompton
(51.4000°N, 0.5333°E)
Time: 02:16:24
(UTC+00:00)

SL-8 Rocket - Pass Details

Date: 11 May 2021
Orbit: 958 x 990 km, 82.9° (Epoch: 13 June)

Event Time Altitude Azimuth Distance (km) Brightness Sun altitude
Rises 22:29:22 0° 350° (N) 3,717 8.6 -18.0°
Reaches altitude 10° 22:31:55 10° 351° (N) 2,765 7.6 -18.2°
Maximum altitude 22:38:17 81° 80° (E) 1,009 4.0 -18.5°
Enters shadow 22:41:33 31° 164° (SSE) 1,661 4.6 -18.7°
